カタログに戻る

CZ-6A DEB

運用中PO
NORAD 60652·DEBRIS·🇨🇳 China

打ち上げ Aug 6, 2024 から Taiyuan Satellite Launch Center

Loading…

次のパス (今後24時間)

TLE

最新Source: Space-Track

元期: Sep 14, 2026, 10:28 UTC

1 60652U 24140BD  26257.43624673  .00001829  00000-0  48219-3 0  9994
2 60652  88.9235 254.0049 0052211 339.3358  20.5735 14.47821353110759

AllMySatでCZ-6A DEBをリアルタイム追跡

Download on the App Store